Location: *
(48.8780°N, 19.2358°E)
Time: 15:41:10
(UTC+00:00)

Cosmos 2058 Rocket - Pass Details

Date: 18 October 2019
Orbit: 611 x 638 km, 82.5° (Epoch: 21 November)

Event Time Altitude Azimuth Distance (km) Brightness Sun altitude
Rises 17:16:28 0° 197° (SSW) 2,869 6.7 -15.2°
Reaches altitude 10° 17:18:42 10° 201° (SSW) 1,967 5.9 -15.6°
Maximum altitude 17:23:00 61° 282° (WNW) 701 3.6 -16.3°
Drops below altitude 10° 17:27:20 10° 3° (N) 1,981 5.7 -17.0°
Sets 17:29:36 0° 7° (N) 2,891 6.5 -17.4°
